Location: Hermaringen
(48.5952°N, 10.2585°E)
Time: 20:22:39
(UTC+00:00)

Tiros 1 despin weight - All Passes

Search period start: 15 February 2026 00:00
Search period end: 25 February 2026 00:00
Orbit: 557 x 594 km, 48.2° (Epoch: 13 February)

Date Brightness Start Highest point End Pass type
(mag) Time Alt. Az. Time Alt. Az. Time Alt. Az.
15 Feb - 15:23:00 10° SSW 15:26:41 30° SSE 15:30:23 10° E daylight
15 Feb - 17:02:44 10° WSW 17:06:55 74° SSE 17:11:08 10° E visible
15 Feb - 18:43:16 10° W 18:47:29 81° S 18:51:43 10° ESE visible
15 Feb - 20:23:55 10° W 20:27:50 38° SSW 20:31:47 10° SE visible
15 Feb - 22:06:48 10° SW 22:07:34 10° SW 22:08:20 10° SSW night (unlit)
16 Feb - 13:48:05 10° SSE 13:49:18 11° SE 13:50:33 10° ESE daylight
16 Feb - 15:25:08 10° SW 15:29:04 40° SSE 15:33:01 10° E daylight
16 Feb - 17:05:14 10° W 17:09:26 82° S 17:13:39 10° E visible
16 Feb - 18:45:48 10° W 18:50:00 72° SSW 18:54:12 10° ESE visible
16 Feb - 20:26:34 10° W 20:30:12 29° SSW 20:33:53 10° SSE visible
17 Feb - 13:48:53 10° S 13:51:33 16° SE 13:54:13 10° E daylight
17 Feb - 15:27:24 10° SW 15:31:29 52° SSE 15:35:35 10° E daylight
17 Feb - 17:07:44 10° W 17:11:57 86° S 17:16:11 10° E visible
17 Feb - 18:48:19 10° W 18:52:29 61° SSW 18:56:38 10° ESE visible
17 Feb - 20:29:20 10° W 20:32:32 21° SW 20:35:45 10° SSE visible
18 Feb - 13:50:30 10° SSW 13:53:50 23° SE 13:57:10 10° E daylight
18 Feb - 15:29:46 10° WSW 15:33:56 64° SSE 15:38:06 10° E daylight
18 Feb - 17:10:15 10° W 17:14:28 86° S 17:18:42 10° E visible
18 Feb - 18:50:51 10° W 18:54:54 48° SSW 18:58:59 10° SE visible
18 Feb - 20:32:24 10° WSW 20:34:49 15° SW 20:37:14 10° S visible
19 Feb - 13:52:26 10° SSW 13:56:09 31° SSE 13:59:53 10° E daylight
19 Feb - 15:32:13 10° WSW 15:36:25 75° SSE 15:40:37 10° E daylight
19 Feb - 17:12:45 10° W 17:16:58 81° S 17:21:11 10° ESE visible
19 Feb - 18:53:25 10° W 18:57:18 37° SSW 19:01:12 10° SE visible
20 Feb - 12:17:15 10° SSE 12:18:44 12° SE 12:20:14 10° ESE daylight
20 Feb - 13:54:33 10° SW 13:58:31 41° SSE 14:02:29 10° E daylight
20 Feb - 15:34:41 10° W 15:38:54 83° S 15:43:06 10° E daylight
20 Feb - 17:15:16 10° W 17:19:27 71° SSW 17:23:38 10° ESE visible
20 Feb - 18:56:03 10° W 18:59:39 28° SSW 19:03:15 10° SSE visible
21 Feb - 12:18:12 10° S 12:20:57 17° SE 12:23:43 10° E daylight
21 Feb - 13:56:48 10° SW 14:00:55 53° SSE 14:05:01 10° E daylight
21 Feb - 15:37:10 10° W 15:41:23 86° S 15:45:36 10° E daylight
21 Feb - 17:17:45 10° W 17:21:54 60° SSW 17:26:02 10° ESE visible
21 Feb - 18:58:49 10° W 19:01:56 20° SW 19:05:04 10° SSE visible
22 Feb - 12:19:49 10° SSW 12:23:13 24° SE 12:26:37 10° E daylight
22 Feb - 13:59:09 10° WSW 14:03:21 65° SSE 14:07:30 10° E daylight
22 Feb - 15:39:39 10° W 15:43:53 85° S 15:48:06 10° E daylight
22 Feb - 17:20:15 10° W 17:24:18 47° SSW 17:28:21 10° SE visible
22 Feb - 19:01:53 10° WSW 19:04:11 14° SW 19:06:27 10° S visible
23 Feb - 12:21:45 10° SSW 12:25:31 32° SSE 12:29:17 10° E daylight
23 Feb - 14:01:34 10° WSW 14:05:47 76° S 14:09:59 10° E daylight
23 Feb - 15:42:08 10° W 15:46:21 80° S 15:50:33 10° ESE daylight
23 Feb - 17:22:48 10° W 17:26:40 36° SSW 17:30:32 10° SE visible
24 Feb - 10:46:21 10° SSE 10:48:03 12° SE 10:49:45 10° ESE daylight
24 Feb - 12:23:51 10° SW 12:27:51 42° SSE 12:31:51 10° E daylight
24 Feb - 14:04:01 10° W 14:08:15 83° S 14:12:28 10° E daylight
24 Feb - 15:44:35 10° W 15:48:47 71° SSW 15:52:59 10° ESE daylight
24 Feb - 17:25:25 10° W 17:28:58 27° SSW 17:32:32 10° SSE visible
